STARLINK-34307, 64489

Orbit data source: Space-Track

STARLINK-34307, 64489 is a payload satellite owned by SpaceX/Seattle (US) in LEO that was launched on Mon, 23 Jun 2025 UTC via an FALCON 9 launch vehicle from the Air Force Eastern Test Range (AFETR). Payload-class satellites include a variety of spacecraft equipped with specific instruments for various scientific and technological missions. These include communications satellites like Starlink; space stations such as the ISS; scientific satellites like the Hubble; Earth observation satellites from companies like Planet Labs, Umbra, and HawkEye 360; GPS; miniature CubeSats for education and research; and military/defense satellites.

Loading next visibility...
Identifier
64489, 2025-133T
Orbit
LEO
Country
Flag of USUS
Related business
Manufacturer
SpaceX/Seattle
Mission
Operational Commercial Communications
Bus & Motor
STARLINK V2MO, Unknown motor
Mass
575 kg wet, ~530 kg dry
Launch date (UTC)
2025-06-23 (1 year ago)
Launch vehicle
FALCON 9
Launch site
Air Force Eastern Test Range (AFETR)
Object type
Payload
Rocket body
Debris
Shape & HBR
Box + 2 Pan, 17.7 m
Radar Cross Section
36.964 m², Large (>1 m²)

Expand to show TLE details & history
Last TLE update: 1 day ago

TLE from 1 day ago
0 STARLINK-34307
1 64489U 25133T   26170.82110898  .00009031  00000-0  31664-3 0  9994
2 64489  53.1600   2.5125 0001102  89.3558 270.7569 15.30203743 56808
Epoch: 2026-06-19T19:42Z
TLE epoch observation values (Epoch: 2026-06-19T19:42:23.815Z)
Latitude
-0.00004°
Longitude
158.86865°
Altitude
476.094 km
Speed
7.629 km/s
True Right ascension
00h 10m 02s
True Declination
0° 00' 00"
Sunlit
Object was in daylight at epoch
Visualization orbit readout
Latitude
Unknown
Longitude
Unknown
Altitude
Unknown
Speed
Unknown
Apparent Right ascension
Unknown
Apparent Declination
Unknown
Sunlit
N/A
Visualization observer readout
Local Sidereal Time
10:17:57
Azimuth
Unknown
Elevation
Unknown
Doppler factor
Unknown
Orbital elements
Apogee altitude
476.216 km
Perigee altitude
474.705 km
Semi-major axis
6,853.597 km
Eccentricity
0.00011
Inclination
53.16°
RAAN
2.5125°
Arg. of periapsis
89.3558°
True anomaly
270.74427°
Mean anomaly
270.7569°
Eccentric anomaly
270.75059°
Mean motion
3.8253 °/min
Orbital period
94.11 mins
BSTAR
0.00031664
Loading maneuver chart data...
Computing Atmospheric mass density...
Loading historical data...
Loading historical data...
Loading historical data...
Loading historical data...
Loading historical data...
Loading historical data...
Loading historical data...

Documentation

Showing up to 5 results
|